Time,TemperatureF,DewpointF,PressureIn,WindDirection,WindDirectionDegrees,WindSpeedMPH,WindSpeedGustMPH,Humidity,HourlyPrecipIn,Conditions,Clouds,dailyrainin,SoftwareType,DateUTC
2013-05-03 00:03:00,62.0,44.0,30.31,SSW,200,1.0,4.0,51,0.00,,,0.00,,2013-05-03 04:03:00,
2013-05-03 00:12:00,61.0,43.0,30.31,SSW,192,1.0,5.0,52,0.00,,,0.00,,2013-05-03 04:12:00,
2013-05-03 00:23:00,61.0,43.0,30.31,SSW,192,1.0,5.0,52,0.00,,,0.00,,2013-05-03 04:23:00,
2013-05-03 00:32:00,60.0,43.0,30.31,SSE,158,1.0,2.0,53,0.00,,,0.00,,2013-05-03 04:32:00,
2013-05-03 00:42:00,60.0,43.0,30.31,SSE,158,1.0,2.0,53,0.00,,,0.00,,2013-05-03 04:42:00,
2013-05-03 00:53:00,60.0,43.0,30.32,SSE,152,1.0,5.0,54,0.00,,,0.00,,2013-05-03 04:53:00,
2013-05-03 01:02:00,59.0,42.0,30.32,SSE,163,3.0,6.0,53,0.00,,,0.00,,2013-05-03 05:02:00,
2013-05-03 01:12:00,59.0,42.0,30.32,SSE,163,3.0,6.0,53,0.00,,,0.00,,2013-05-03 05:12:00,
2013-05-03 01:21:00,59.0,41.0,30.32,SE,142,2.0,6.0,52,0.00,,,0.00,,2013-05-03 05:21:00,
2013-05-03 01:32:00,59.0,42.0,30.32,SE,142,1.0,4.0,53,0.00,,,0.00,,2013-05-03 05:32:00,
2013-05-03 01:42:00,59.0,42.0,30.32,SE,142,1.0,4.0,53,0.00,,,0.00,,2013-05-03 05:42:00,
2013-05-03 01:52:00,59.0,40.0,30.32,SSW,206,0.0,5.0,50,0.00,,,0.00,,2013-05-03 05:52:00,
2013-05-03 02:02:00,58.0,38.0,30.32,East,96,1.0,6.0,48,0.00,,,0.00,,2013-05-03 06:02:00,
2013-05-03 02:12:00,58.0,38.0,30.32,East,96,1.0,6.0,48,0.00,,,0.00,,2013-05-03 06:12:00,
2013-05-03 02:21:00,58.0,38.0,30.32,SSE,161,3.0,5.0,47,0.00,,,0.00,,2013-05-03 06:21:00,
2013-05-03 02:32:00,58.0,37.0,30.33,ESE,110,0.0,7.0,46,0.00,,,0.00,,2013-05-03 06:32:00,
2013-05-03 02:42:00,58.0,37.0,30.33,ESE,110,0.0,7.0,46,0.00,,,0.00,,2013-05-03 06:42:00,
2013-05-03 02:52:00,57.0,35.0,30.33,SSE,147,1.0,3.0,44,0.00,,,0.00,,2013-05-03 06:52:00,
2013-05-03 03:01:00,56.0,34.0,30.34,SE,128,0.0,7.0,43,0.00,,,0.00,,2013-05-03 07:01:00,
2013-05-03 03:11:00,56.0,34.0,30.34,SE,128,0.0,7.0,43,0.00,,,0.00,,2013-05-03 07:11:00,
2013-05-03 03:21:00,56.0,34.0,30.35,South,176,1.0,4.0,44,0.00,,,0.00,,2013-05-03 07:21:00,
2013-05-03 03:32:00,55.0,34.0,30.35,SE,144,1.0,3.0,45,0.00,,,0.00,,2013-05-03 07:32:00,
2013-05-03 03:42:00,55.0,34.0,30.35,SE,144,1.0,3.0,45,0.00,,,0.00,,2013-05-03 07:42:00,
2013-05-03 03:52:00,55.0,34.0,30.35,ESE,114,2.0,7.0,45,0.00,,,0.00,,2013-05-03 07:52:00,
2013-05-03 04:02:00,54.0,34.0,30.36,South,176,1.0,3.0,46,0.00,,,0.00,,2013-05-03 08:02:00,
2013-05-03 04:12:00,54.0,34.0,30.36,South,176,1.0,3.0,46,0.00,,,0.00,,2013-05-03 08:12:00,
2013-05-03 04:21:00,53.0,34.0,30.36,South,178,0.0,3.0,48,0.00,,,0.00,,2013-05-03 08:21:00,
2013-05-03 04:32:00,52.0,34.0,30.37,South,178,0.0,1.0,51,0.00,,,0.00,,2013-05-03 08:32:00,
2013-05-03 04:42:00,52.0,34.0,30.37,South,178,0.0,1.0,51,0.00,,,0.00,,2013-05-03 08:42:00,
2013-05-03 04:53:00,51.0,35.0,30.37,South,175,0.0,2.0,54,0.00,,,0.00,,2013-05-03 08:53:00,
2013-05-03 05:01:00,50.0,35.0,30.37,South,175,1.0,2.0,57,0.00,,,0.00,,2013-05-03 09:01:00,
2013-05-03 05:12:00,50.0,35.0,30.37,South,175,1.0,2.0,57,0.00,,,0.00,,2013-05-03 09:12:00,
2013-05-03 05:21:00,50.0,35.0,30.38,South,176,0.0,2.0,57,0.00,,,0.00,,2013-05-03 09:21:00,
2013-05-03 05:32:00,50.0,36.0,30.38,South,176,0.0,2.0,59,0.00,,,0.00,,2013-05-03 09:32:00,
2013-05-03 05:42:00,50.0,36.0,30.38,South,176,0.0,2.0,59,0.00,,,0.00,,2013-05-03 09:42:00,
2013-05-03 05:53:00,49.0,36.0,30.39,South,175,0.0,0.0,60,0.00,,,0.00,,2013-05-03 09:53:00,
2013-05-03 06:03:00,49.0,36.0,30.39,South,175,0.0,1.0,61,0.00,,,0.00,,2013-05-03 10:03:00,
2013-05-03 06:12:00,49.0,36.0,30.39,South,175,0.0,1.0,61,0.00,,,0.00,,2013-05-03 10:12:00,
2013-05-03 06:22:00,49.0,37.0,30.39,South,176,0.0,0.0,62,0.00,,,0.00,,2013-05-03 10:22:00,
2013-05-03 06:32:00,48.0,36.0,30.40,South,176,0.0,0.0,63,0.00,,,0.00,,2013-05-03 10:32:00,
2013-05-03 06:42:00,48.0,36.0,30.40,South,176,0.0,0.0,63,0.00,,,0.00,,2013-05-03 10:42:00,
2013-05-03 06:52:00,48.0,36.0,30.40,South,176,0.0,0.0,63,0.00,,,0.00,,2013-05-03 10:52:00,
2013-05-03 07:02:00,49.0,37.0,30.40,SSE,161,0.0,2.0,62,0.00,,,0.00,,2013-05-03 11:02:00,
2013-05-03 07:11:00,49.0,37.0,30.40,SSE,161,0.0,2.0,62,0.00,,,0.00,,2013-05-03 11:11:00,
2013-05-03 07:22:00,50.0,37.0,30.40,SSE,161,0.0,3.0,60,0.00,,,0.00,,2013-05-03 11:22:00,
2013-05-03 07:32:00,51.0,37.0,30.40,SSE,161,0.0,3.0,59,0.00,,,0.00,,2013-05-03 11:32:00,
2013-05-03 07:42:00,51.0,37.0,30.40,SSE,161,0.0,3.0,59,0.00,,,0.00,,2013-05-03 11:42:00,
2013-05-03 07:52:00,52.0,37.0,30.40,SSE,157,1.0,3.0,57,0.00,,,0.00,,2013-05-03 11:52:00,
2013-05-03 08:02:00,53.0,37.0,30.40,SE,144,0.0,4.0,55,0.00,,,0.00,,2013-05-03 12:02:00,
2013-05-03 08:11:00,53.0,37.0,30.40,SE,144,0.0,4.0,55,0.00,,,0.00,,2013-05-03 12:11:00,
2013-05-03 08:21:00,53.0,37.0,30.40,SSW,194,1.0,6.0,54,0.00,,,0.00,,2013-05-03 12:21:00,
2013-05-03 08:32:00,54.0,38.0,30.40,SSW,193,1.0,4.0,55,0.00,,,0.00,,2013-05-03 12:32:00,
2013-05-03 08:42:00,54.0,38.0,30.40,SSW,193,1.0,4.0,55,0.00,,,0.00,,2013-05-03 12:42:00,
2013-05-03 08:52:00,54.0,37.0,30.40,South,183,3.0,4.0,53,0.00,,,0.00,,2013-05-03 12:52:00,
2013-05-03 09:01:00,55.0,39.0,30.40,SE,144,2.0,6.0,54,0.00,,,0.00,,2013-05-03 13:01:00,
2013-05-03 09:11:00,55.0,39.0,30.40,SE,144,2.0,6.0,54,0.00,,,0.00,,2013-05-03 13:11:00,
2013-05-03 09:22:00,55.0,38.0,30.40,ESE,105,2.0,6.0,52,0.00,,,0.00,,2013-05-03 13:22:00,
2013-05-03 09:32:00,55.0,38.0,30.39,SSE,148,2.0,5.0,52,0.00,,,0.00,,2013-05-03 13:32:00,
2013-05-03 09:42:00,55.0,38.0,30.39,SSE,148,2.0,5.0,52,0.00,,,0.00,,2013-05-03 13:42:00,
2013-05-03 09:52:00,55.0,38.0,30.39,SE,138,2.0,6.0,52,0.00,,,0.00,,2013-05-03 13:52:00,
2013-05-03 10:02:00,56.0,38.0,30.39,SSE,164,1.0,5.0,50,0.00,,,0.00,,2013-05-03 14:02:00,
2013-05-03 10:11:00,56.0,38.0,30.39,SSE,164,1.0,5.0,50,0.00,,,0.00,,2013-05-03 14:11:00,
2013-05-03 10:22:00,57.0,38.0,30.39,SE,140,1.0,6.0,49,0.00,,,0.00,,2013-05-03 14:22:00,
2013-05-03 10:32:00,57.0,38.0,30.39,SE,141,2.0,5.0,48,0.00,,,0.00,,2013-05-03 14:32:00,
2013-05-03 10:42:00,57.0,38.0,30.39,SE,141,2.0,5.0,48,0.00,,,0.00,,2013-05-03 14:42:00,
2013-05-03 10:52:00,58.0,38.0,30.39,SSE,152,2.0,4.0,47,0.00,,,0.00,,2013-05-03 14:52:00,
2013-05-03 11:01:00,59.0,38.0,30.38,South,191,2.0,4.0,46,0.00,,,0.00,,2013-05-03 15:01:00,
2013-05-03 11:11:00,59.0,38.0,30.38,South,191,2.0,4.0,46,0.00,,,0.00,,2013-05-03 15:11:00,
2013-05-03 11:22:00,60.0,39.0,30.37,South,178,2.0,3.0,45,0.00,,,0.00,,2013-05-03 15:22:00,
2013-05-03 11:32:00,60.0,37.0,30.37,SSW,192,2.0,5.0,43,0.00,,,0.00,,2013-05-03 15:32:00,
2013-05-03 11:43:00,60.0,37.0,30.37,SSW,192,2.0,5.0,43,0.00,,,0.00,,2013-05-03 15:43:00,
2013-05-03 11:53:00,61.0,38.0,30.37,SSW,204,1.0,5.0,43,0.00,,,0.00,,2013-05-03 15:53:00,
2013-05-03 12:03:00,61.0,38.0,30.36,SW,229,0.0,6.0,42,0.00,,,0.00,,2013-05-03 16:03:00,
2013-05-03 12:13:00,61.0,38.0,30.36,SW,229,0.0,6.0,42,0.00,,,0.00,,2013-05-03 16:13:00,
2013-05-03 12:23:00,63.0,38.0,30.35,ESE,119,1.0,6.0,40,0.00,,,0.00,,2013-05-03 16:23:00,
2013-05-03 12:32:00,63.0,38.0,30.35,SE,126,2.0,6.0,39,0.00,,,0.00,,2013-05-03 16:32:00,
2013-05-03 12:42:00,63.0,38.0,30.35,SE,126,2.0,6.0,39,0.00,,,0.00,,2013-05-03 16:42:00,
2013-05-03 12:52:00,64.0,39.0,30.34,SSE,167,2.0,7.0,40,0.00,,,0.00,,2013-05-03 16:52:00,
2013-05-03 13:02:00,66.0,38.0,30.33,South,177,2.0,5.0,36,0.00,,,0.00,,2013-05-03 17:02:00,
2013-05-03 13:12:00,65.0,37.0,30.33,SSE,168,1.0,6.0,36,0.00,,,0.00,,2013-05-03 17:12:00,
2013-05-03 13:23:00,65.0,37.0,30.33,SSE,168,1.0,6.0,36,0.00,,,0.00,,2013-05-03 17:23:00,
2013-05-03 13:32:00,65.0,37.0,30.32,SE,126,1.0,6.0,35,0.00,,,0.00,,2013-05-03 17:32:00,
2013-05-03 13:42:00,65.0,37.0,30.32,SE,126,1.0,6.0,35,0.00,,,0.00,,2013-05-03 17:42:00,
2013-05-03 13:52:00,67.0,37.0,30.31,SE,129,4.0,6.0,33,0.00,,,0.00,,2013-05-03 17:52:00,
2013-05-03 14:01:00,68.0,38.0,30.31,WNW,287,1.0,5.0,33,0.00,,,0.00,,2013-05-03 18:01:00,
2013-05-03 14:12:00,68.0,38.0,30.31,WNW,287,1.0,5.0,33,0.00,,,0.00,,2013-05-03 18:12:00,
2013-05-03 14:21:00,68.0,38.0,30.30,SSW,198,1.0,4.0,33,0.00,,,0.00,,2013-05-03 18:21:00,
2013-05-03 14:32:00,69.0,37.0,30.30,SE,146,3.0,9.0,31,0.00,,,0.00,,2013-05-03 18:32:00,
2013-05-03 14:42:00,69.0,37.0,30.30,SE,146,3.0,9.0,31,0.00,,,0.00,,2013-05-03 18:42:00,
2013-05-03 14:52:00,69.0,36.0,30.29,SSE,153,3.0,5.0,30,0.00,,,0.00,,2013-05-03 18:52:00,
2013-05-03 15:01:00,69.0,38.0,30.29,ESE,120,2.0,5.0,32,0.00,,,0.00,,2013-05-03 19:01:00,
2013-05-03 15:11:00,69.0,38.0,30.29,ESE,120,2.0,5.0,32,0.00,,,0.00,,2013-05-03 19:11:00,
2013-05-03 15:21:00,69.0,38.0,30.29,South,178,1.0,6.0,32,0.00,,,0.00,,2013-05-03 19:21:00,
2013-05-03 15:32:00,69.0,37.0,30.28,SSE,148,1.0,5.0,31,0.00,,,0.00,,2013-05-03 19:32:00,
2013-05-03 15:42:00,69.0,37.0,30.28,SSE,148,1.0,5.0,31,0.00,,,0.00,,2013-05-03 19:42:00,
2013-05-03 15:52:00,69.0,37.0,30.28,SSE,164,0.0,5.0,31,0.00,,,0.00,,2013-05-03 19:52:00,
2013-05-03 16:02:00,69.0,38.0,30.27,SW,217,2.0,6.0,32,0.00,,,0.00,,2013-05-03 20:02:00,
2013-05-03 16:11:00,69.0,38.0,30.27,SW,217,2.0,6.0,32,0.00,,,0.00,,2013-05-03 20:11:00,
2013-05-03 16:21:00,70.0,38.0,30.27,SE,146,2.0,7.0,31,0.00,,,0.00,,2013-05-03 20:21:00,
2013-05-03 16:32:00,70.0,38.0,30.26,SSW,208,0.0,5.0,31,0.00,,,0.00,,2013-05-03 20:32:00,
2013-05-03 16:42:00,70.0,38.0,30.26,SSW,208,0.0,5.0,31,0.00,,,0.00,,2013-05-03 20:42:00,
2013-05-03 16:52:00,70.0,38.0,30.25,SE,126,1.0,3.0,31,0.00,,,0.00,,2013-05-03 20:52:00,
2013-05-03 17:01:00,70.0,37.0,30.25,ENE,76,3.0,6.0,30,0.00,,,0.00,,2013-05-03 21:01:00,
2013-05-03 17:11:00,70.0,37.0,30.25,ENE,76,3.0,6.0,30,0.00,,,0.00,,2013-05-03 21:11:00,
2013-05-03 17:21:00,71.0,38.0,30.25,WSW,237,0.0,5.0,30,0.00,,,0.00,,2013-05-03 21:21:00,
2013-05-03 17:33:00,70.0,35.0,30.25,SE,142,1.0,5.0,28,0.00,,,0.00,,2013-05-03 21:33:00,
2013-05-03 17:42:00,70.0,35.0,30.25,SE,142,1.0,5.0,28,0.00,,,0.00,,2013-05-03 21:42:00,
2013-05-03 17:53:00,70.0,34.0,30.25,South,186,1.0,7.0,27,0.00,,,0.00,,2013-05-03 21:53:00,
2013-05-03 18:03:00,70.0,36.0,30.25,SE,133,0.0,4.0,29,0.00,,,0.00,,2013-05-03 22:03:00,
2013-05-03 18:13:00,70.0,36.0,30.25,SE,133,0.0,4.0,29,0.00,,,0.00,,2013-05-03 22:13:00,
2013-05-03 18:22:00,70.0,37.0,30.25,South,175,0.0,3.0,30,0.00,,,0.00,,2013-05-03 22:22:00,
2013-05-03 18:32:00,70.0,36.0,31.40,SE,146,0.0,2.0,29,0.00,,,0.00,,2013-05-03 22:32:00,
2013-05-03 18:42:00,70.0,36.0,31.40,SE,146,0.0,2.0,29,0.00,,,0.00,,2013-05-03 22:42:00,
2013-05-03 18:52:00,69.0,36.0,30.24,SE,144,0.0,3.0,30,0.00,,,0.00,,2013-05-03 22:52:00,
2013-05-03 19:02:00,68.0,38.0,30.25,SE,144,0.0,3.0,33,0.00,,,0.00,,2013-05-03 23:02:00,
2013-05-03 19:11:00,68.0,38.0,30.25,SE,144,0.0,3.0,33,0.00,,,0.00,,2013-05-03 23:11:00,
2013-05-03 19:22:00,67.0,39.0,30.25,SE,144,0.0,2.0,36,0.00,,,0.00,,2013-05-03 23:22:00,
2013-05-03 19:31:00,65.0,39.0,30.25,SE,144,0.0,2.0,38,0.00,,,0.00,,2013-05-03 23:31:00,
2013-05-03 19:41:00,65.0,39.0,30.25,SE,144,0.0,2.0,38,0.00,,,0.00,,2013-05-03 23:41:00,
2013-05-03 19:52:00,63.0,41.0,30.25,SE,144,0.0,0.0,45,0.00,,,0.00,,2013-05-03 23:52:00,
2013-05-03 20:01:00,61.0,40.0,30.25,SE,144,0.0,0.0,46,0.00,,,0.00,,2013-05-04 00:01:00,
2013-05-03 20:11:00,61.0,40.0,30.25,SE,144,0.0,0.0,46,0.00,,,0.00,,2013-05-04 00:11:00,
2013-05-03 20:23:00,60.0,38.0,30.25,SE,144,0.0,0.0,44,0.00,,,0.00,,2013-05-04 00:23:00,
2013-05-03 20:32:00,60.0,39.0,30.25,SE,144,0.0,0.0,45,0.00,,,0.00,,2013-05-04 00:32:00,
2013-05-03 20:42:00,60.0,39.0,30.25,SE,144,0.0,0.0,45,0.00,,,0.00,,2013-05-04 00:42:00,
2013-05-03 20:52:00,58.0,38.0,30.26,SE,144,0.0,1.0,48,0.00,,,0.00,,2013-05-04 00:52:00,
2013-05-03 21:01:00,57.0,39.0,30.26,SE,144,0.0,1.0,51,0.00,,,0.00,,2013-05-04 01:01:00,
2013-05-03 21:11:00,57.0,39.0,30.26,SE,144,0.0,1.0,51,0.00,,,0.00,,2013-05-04 01:11:00,
2013-05-03 21:21:00,57.0,38.0,30.27,SE,144,0.0,0.0,49,0.00,,,0.00,,2013-05-04 01:21:00,
2013-05-03 21:32:00,56.0,39.0,30.27,SE,144,0.0,0.0,52,0.00,,,0.00,,2013-05-04 01:32:00,
2013-05-03 21:42:00,56.0,39.0,30.28,SE,144,0.0,2.0,52,0.00,,,0.00,,2013-05-04 01:42:00,
2013-05-03 21:52:00,56.0,39.0,30.28,SE,144,0.0,2.0,52,0.00,,,0.00,,2013-05-04 01:52:00,
2013-05-03 22:02:00,56.0,39.0,30.28,SE,144,0.0,0.0,53,0.00,,,0.00,,2013-05-04 02:02:00,
2013-05-03 22:11:00,56.0,39.0,30.28,SE,144,0.0,0.0,53,0.00,,,0.00,,2013-05-04 02:11:00,
2013-05-03 22:21:00,56.0,40.0,30.28,SE,144,0.0,0.0,54,0.00,,,0.00,,2013-05-04 02:21:00,
2013-05-03 22:32:00,56.0,40.0,30.28,SE,144,0.0,0.0,55,0.00,,,0.00,,2013-05-04 02:32:00,
2013-05-03 22:42:00,56.0,40.0,30.28,SE,144,0.0,0.0,55,0.00,,,0.00,,2013-05-04 02:42:00,
2013-05-03 22:52:00,56.0,41.0,30.37,SE,144,0.0,1.0,58,0.00,,,0.00,,2013-05-04 02:52:00,
2013-05-03 23:02:00,55.0,41.0,30.28,SE,144,0.0,0.0,60,0.00,,,0.00,,2013-05-04 03:02:00,
2013-05-03 23:11:00,54.0,42.0,30.28,SE,144,0.0,2.0,63,0.00,,,0.00,,2013-05-04 03:11:00,
2013-05-03 23:22:00,54.0,42.0,30.28,SE,144,0.0,2.0,63,0.00,,,0.00,,2013-05-04 03:22:00,
2013-05-03 23:33:00,54.0,42.0,30.28,SE,144,0.0,2.0,64,0.00,,,0.00,,2013-05-04 03:33:00,
2013-05-03 23:43:00,54.0,42.0,30.28,SE,144,0.0,2.0,64,0.00,,,0.00,,2013-05-04 03:43:00,
2013-05-03 23:53:00,54.0,43.0,30.29,SE,144,0.0,1.0,65,0.00,,,0.00,,2013-05-04 03:53:00,